Location: Newark
(49.3808°N, 3.1844°E)
Time: 13:08:21
(UTC+00:00)

Courier 1B Rocket - All Passes

Search period start: 17 November 2019 00:00
Search period end: 27 November 2019 00:00
Orbit: 920 x 1202 km, 28.2° (Epoch: 16 November)

Date Brightness Start Highest point End Pass type
(mag) Time Alt. Az. Time Alt. Az. Time Alt. Az.
17 Nov - 16:34:46 10° SSW 16:38:03 13° S 16:41:25 10° SSE visible
17 Nov - 18:26:57 10° SSW 18:30:13 13° S 18:33:30 10° SSE visible
18 Nov - 15:35:03 10° S 15:37:21 12° SSE 15:39:41 10° SSE daylight
18 Nov - 17:25:56 10° SSW 17:29:28 14° S 17:33:03 10° SSE visible
19 Nov - 16:25:20 10° SSW 16:28:44 14° S 16:32:11 10° SSE visible
19 Nov - 18:18:48 10° SSW 18:20:52 11° SSW 18:22:56 10° S visible
20 Nov - 15:25:10 10° SSW 15:28:02 13° S 15:30:57 10° SSE daylight
20 Nov - 17:17:15 10° SSW 17:20:08 12° S 17:23:04 10° SSE visible
21 Nov - 14:25:49 10° S 14:27:22 11° SSE 14:28:56 10° SSE daylight
21 Nov - 16:16:19 10° SSW 16:19:25 13° S 16:22:35 10° SSE daylight
22 Nov - 15:15:50 10° SSW 15:18:44 13° S 15:21:41 10° SSE daylight
22 Nov - 17:09:36 10° SSW 17:10:49 10° SSW 17:12:02 10° S visible
23 Nov - 14:15:50 10° SSW 14:18:04 12° S 14:20:20 10° SSE daylight
23 Nov - 16:07:51 10° SSW 16:10:07 12° S 16:12:26 10° S daylight
24 Nov - 15:06:58 10° SSW 15:09:27 12° S 15:11:59 10° SSE daylight
25 Nov - 14:06:34 10° SSW 14:08:48 12° S 14:11:05 10° SSE daylight
26 Nov - 13:06:49 10° S 13:08:12 11° S 13:09:35 10° SSE daylight
26 Nov - 14:58:56 10° SSW 15:00:11 11° S 15:01:28 10° S daylight
